[[{"header":{"parameterUnit":"m.s-1","parameterCategory":1,"la1":30.2991,"la2":30.254,"lo1":-89.0895,"lo2":-89.0444,"dy":0.0017,"dx":0.0017,"nx":28,"ny":28,"refTime":"2023-09-10T21:00:00:Z","depth":0,"parameterNumber":2,"parameterNumberName":"U-component_of_WINDS"},"data":[0,0,0,0,0,0,0,0,0,0,0,0,0,0,0,0,0,0,0,0,0,0,0,0,0,0,0,0,0,0,0,0,0,0,0,0,0,0,0,0,0,0,0,0,0,0,0,0,0,0,0,0,0,0,0,0,0,0,0.1878,0.1879,0,0.1918,0.1918,0.1918,0.1974,0.1975,0.1976,0.1977,0.2016,0.2017,0.2017,0,0,0,0,0,0,0,0,0,0,0,0,0,0.185,0.1851,0.1878,0.1879,0.1879,0.1917,0.1918,0.1919,0.1974,0.1975,0.1976,0.1978,0.2016,0.2017,0.2017,0,0,0,0,0,0,0,0,0,0,0,0,0,0.1873,0.1851,0.1878,0.1911,0.1915,0.1917,0.1918,0.1919,0.1974,0.1975,0.1977,0.1978,0.2016,0.2017,0.2017,0.1989,0,0,0.2017,0.2018,0,0,0,0,0,0,0,0,0.1872,0.1874,0.1906,0.1909,0.1913,0.1943,0.1923,0.1942,0.1973,0.1951,0.1977,0.1979,0.1991,0.1993,0.1997,0.1991,0.1993,0.2018,0.2018,0.2018,0.2018,0,0,0,0,0,0,0,0.187,0.1873,0.1894,0.1906,0.1911,0.1924,0.1929,0.1927,0.1962,0.1953,0.1958,0.1962,0.1993,0.1997,0.1999,0.1994,0.2018,0.2018,0.2018,0.2018,0.1967,0.1966,0,0,0,0,0,0,0.1864,0.1871,0.1892,0.1895,0.1896,0.1924,0.1929,0.1932,0.1963,0.1969,0.196,0.1964,0.1996,0.1998,0.2,0.197,0.2018,0.2018,0.2018,0.1969,0.1967,0.1965,0,0,0,0,0,0,0.1863,0.1865,0.1891,0.1884,0.1889,0.1923,0.1925,0.1932,0.1936,0.1968,0.1974,0.1958,0.1997,0.2,0.1992,0.1972,0.2018,0.2018,0.1971,0.1968,0.1966,0.1909,0,0,0,0,0,0,0.1862,0.1865,0.1855,0.1884,0.1889,0.1882,0.1924,0.1931,0.1936,0.1941,0.1967,0.1973,0.1998,0.1991,0.1992,0.1973,0.2018,0.1972,0.197,0.1967,0.1913,0.1906,0.1899,0,0,0,0,0,0.1861,0.1837,0.1854,0.1856,0.1877,0.188,0.1883,0.1913,0.1934,0.1924,0.1945,0.1972,0.1974,0.199,0.1991,0.1972,0.1974,0.197,0.1967,0.1916,0.1907,0.1899,0,0,0,0,0,0,0.1804,0.1841,0.186,0.1845,0.1859,0.189,0.1878,0.1902,0.1911,0.1915,0.1952,0.1957,0.1944,0.1958,0.1974,0.1948,0.1978,0.1975,0.1939,0.1931,0.1924,0.192,0.2019,0,0,0,0,0,0.179,0.179,0.1822,0.1806,0.1812,0.1844,0.1846,0.1868,0.1884,0.189,0.1911,0.1925,0.1929,0.1931,0.1936,0.1916,0.1922,0.1904,0.1897,0.1891,0.1887,0.1877,0.1869,0.1954,0.1955,0.1955,0,0,0.176,0.1781,0.1778,0.1795,0.1808,0.1807,0.1848,0.1845,0.1845,0.189,0.1884,0.1899,0.1917,0.1903,0.1898,0.1914,0.1865,0.1886,0.1881,0.1881,0.1873,0.1865,0.1857,0.1952,0.1953,0.1953,0,0,0.1706,0.1721,0.1709,0.1722,0.1742,0.1764,0.1761,0.1788,0.18,0.1794,0.1828,0.1828,0.1834,0.1846,0.1852,0.1803,0.1828,0.1804,0.1766,0.1756,0.1749,0.1744,0.1725,0.1718,0.1801,0.18,0.18,0,0.1666,0.1666,0.1699,0.1695,0.1701,0.1742,0.173,0.1741,0.1761,0.1765,0.1783,0.1792,0.1807,0.1796,0.1784,0.1788,0.1785,0.1801,0.1748,0.1742,0.1737,0.172,0.1713,0.1797,0.1798,0.1798,0.1798,0,0.1616,0.1616,0.1603,0.1623,0.1628,0.1619,0.1651,0.1652,0.1674,0.1693,0.1687,0.1707,0.1717,0.1717,0.1738,0.1708,0.1718,0.1741,0.1772,0.1726,0.171,0.1704,0.1793,0.1794,0.1795,0.1796,0,0,0.1526,0.1564,0.1559,0.1568,0.1594,0.1594,0.1588,0.1598,0.1598,0.1611,0.1606,0.1611,0.1633,0.1641,0.1664,0.1655,0.1614,0.168,0.1681,0.1666,0.1582,0.1563,0.1555,0.1631,0.163,0.1629,0.158,0,0.1475,0.1466,0.1496,0.1479,0.1479,0.1519,0.1513,0.1528,0.1547,0.1549,0.157,0.1572,0.1601,0.1606,0.1599,0.162,0.1597,0.1624,0.1626,0.1626,0.1619,0.1547,0.1528,0.148,0.1575,0.1574,0.1573,0,0.1415,0.1425,0.1408,0.1435,0.1436,0.1431,0.1443,0.1445,0.1463,0.1477,0.1485,0.1512,0.1508,0.1538,0.1532,0.155,0.1553,0.1563,0.1562,0.1562,0.1596,0.1545,0.1466,0.1459,0.1564,0.1565,0.1565,0,0.135,0.136,0.1351,0.1358,0.1389,0.1384,0.1397,0.1416,0.1421,0.1431,0.1434,0.1444,0.1449,0.1456,0.1485,0.1505,0.1475,0.1508,0.1486,0.1485,0.1477,0.1477,0.1396,0.148,0.148,0.148,0.1481,0,0.129,0.1278,0.1322,0.1316,0.1304,0.1339,0.1326,0.1342,0.136,0.1358,0.1393,0.1391,0.1429,0.1431,0.1454,0.1445,0.1447,0.1458,0.1464,0.1454,0.1452,0.1455,0.1459,0.1479,0.1479,0.1479,0.148,0,0.1214,0.1244,0.1236,0.1267,0.1274,0.1264,0.129,0.1286,0.1307,0.1304,0.1305,0.1338,0.1342,0.1372,0.1382,0.1398,0.138,0.1393,0.1373,0.1377,0.1353,0.1354,0.1271,0.1261,0.1352,0.1351,0.135,0,0.1173,0.1165,0.1195,0.1196,0.1208,0.121,0.1214,0.1249,0.1252,0.1273,0.1266,0.1273,0.128,0.1284,0.1309,0.1317,0.133,0.13,0.1331,0.1322,0.1328,0.1328,0.1327,0.1293,0.1292,0.1291,0.129,0,0.1098,0.1113,0.1118,0.1129,0.1134,0.1144,0.1156,0.1155,0.1193,0.1196,0.12,0.1206,0.1217,0.1223,0.1236,0.1249,0.1275,0.128,0.1275,0.1265,0.1253,0.1258,0.1354,0.1282,0.1283,0.1283,0.1284,0.1284,0.1038,0.1032,0.1052,0.1057,0.107,0.1081,0.1079,0.11,0.1104,0.1116,0.1136,0.1138,0.1156,0.1176,0.1187,0.1189,0.1204,0.1197,0.1195,0.1193,0.1187,0.1254,0.1191,0.1192,0.1192,0.1192,0.1192,0,0.0963,0.0978,0.0983,0.0999,0.1003,0.1029,0.1044,0.1045,0.1046,0.1061,0.1068,0.1073,0.1079,0.1105,0.1114,0.111,0.1122,0.1111,0.1111,0.1113,0.1173,0.1176,0.1101,0.1101,0.1101,0.1101,0.1101,0.1101,0.0925,0.0916,0.0934,0.0932,0.0948,0.0949,0.0956,0.0966,0.0978,0.0982,0.0988,0.1005,0.1024,0.1035,0.1041,0.1049,0.105,0.1034,0.1045,0.1101,0.1109,0.1118,0.112,0.1035,0.1034,0.0985,0.0985,0.0984]},{"header":{"parameterUnit":"m.s-1","parameterCategory":1,"la1":30.2991,"la2":30.254,"lo1":-89.0895,"lo2":-89.0444,"dy":0.0017,"dx":0.0017,"nx":28,"ny":28,"refTime":"2023-09-10T21:00:00:Z","depth":0,"parameterNumber":3,"parameterNumberName":"V-component_of_WINDS"},"data":[0,0,0,0,0,0,0,0,0,0,0,0,0,0,0,0,0,0,0,0,0,0,0,0,0,0,0,0,0,0,0,0,0,0,0,0,0,0,0,0,0,0,0,0,0,0,0,0,0,0,0,0,0,0,0,0,0,0,-0.5589,-0.5588,0,-0.5564,-0.5563,-0.5563,-0.5536,-0.5535,-0.5535,-0.5534,-0.5509,-0.5509,-0.5508,0,0,0,0,0,0,0,0,0,0,0,0,0,-0.5615,-0.5615,-0.5589,-0.5588,-0.5588,-0.5564,-0.5563,-0.5563,-0.5536,-0.5535,-0.5535,-0.5534,-0.5509,-0.5509,-0.5508,0,0,0,0,0,0,0,0,0,0,0,0,0,-0.5599,-0.5615,-0.5589,-0.5571,-0.557,-0.5564,-0.5563,-0.5563,-0.5536,-0.5535,-0.5535,-0.5534,-0.5509,-0.5509,-0.5508,-0.5517,0,0,-0.5507,-0.5507,0,0,0,0,0,0,0,0,-0.56,-0.5598,-0.5574,-0.5573,-0.5571,-0.5552,-0.5563,-0.5548,-0.5536,-0.5549,-0.5534,-0.5534,-0.5524,-0.5522,-0.5519,-0.5516,-0.5515,-0.5507,-0.5507,-0.5506,-0.5506,0,0,0,0,0,0,0,-0.5601,-0.5598,-0.5579,-0.5574,-0.5572,-0.5566,-0.5563,-0.556,-0.554,-0.5547,-0.5545,-0.5543,-0.5523,-0.5519,-0.5518,-0.5515,-0.5507,-0.5506,-0.5506,-0.5506,-0.5523,-0.5524,0,0,0,0,0,0,-0.5604,-0.56,-0.558,-0.5578,-0.5584,-0.5566,-0.5562,-0.5559,-0.554,-0.5536,-0.5543,-0.5542,-0.552,-0.5518,-0.5517,-0.5529,-0.5506,-0.5506,-0.5506,-0.5522,-0.5523,-0.5524,0,0,0,0,0,0,-0.5605,-0.5603,-0.5581,-0.5588,-0.5585,-0.5566,-0.5562,-0.5559,-0.5555,-0.5537,-0.5533,-0.5543,-0.552,-0.5518,-0.5518,-0.5528,-0.5506,-0.5505,-0.5521,-0.5522,-0.5523,-0.5552,0,0,0,0,0,0,-0.5606,-0.5603,-0.5605,-0.5589,-0.5585,-0.5582,-0.5563,-0.5558,-0.5554,-0.5552,-0.5536,-0.5533,-0.5519,-0.5519,-0.5518,-0.5527,-0.5505,-0.552,-0.5522,-0.5523,-0.555,-0.5554,-0.5557,0,0,0,0,0,-0.5607,-0.5614,-0.5606,-0.5603,-0.5587,-0.5582,-0.558,-0.5564,-0.5555,-0.5558,-0.5547,-0.5533,-0.5527,-0.552,-0.5518,-0.5527,-0.552,-0.5521,-0.5523,-0.5549,-0.5553,-0.5557,0,0,0,0,0,0,-0.5631,-0.5611,-0.5602,-0.5603,-0.5595,-0.5578,-0.5581,-0.5569,-0.5563,-0.5561,-0.5542,-0.5539,-0.5543,-0.5534,-0.5527,-0.5537,-0.5522,-0.5523,-0.5542,-0.5546,-0.5549,-0.5552,-0.5505,0,0,0,0,0,-0.5637,-0.5634,-0.5617,-0.562,-0.5616,-0.5599,-0.5596,-0.5586,-0.5576,-0.5572,-0.5561,-0.5552,-0.5549,-0.5547,-0.5542,-0.5549,-0.5547,-0.5555,-0.5558,-0.5561,-0.5563,-0.5569,-0.5574,-0.5529,-0.5529,-0.5529,0,0,-0.5648,-0.5637,-0.5636,-0.5624,-0.5616,-0.5615,-0.5596,-0.5595,-0.5594,-0.5572,-0.5573,-0.5565,-0.5554,-0.5559,-0.5561,-0.5552,-0.5575,-0.5563,-0.5566,-0.5566,-0.5572,-0.5576,-0.558,-0.553,-0.553,-0.553,0,0,-0.5668,-0.5658,-0.5661,-0.5655,-0.5644,-0.5633,-0.5635,-0.562,-0.5614,-0.5615,-0.5599,-0.5598,-0.5592,-0.5586,-0.5582,-0.5605,-0.5593,-0.5604,-0.5623,-0.5629,-0.5633,-0.5636,-0.5647,-0.565,-0.5606,-0.5606,-0.5606,0,-0.5683,-0.568,-0.5664,-0.5665,-0.5662,-0.5643,-0.5647,-0.5641,-0.563,-0.5628,-0.562,-0.5614,-0.5605,-0.561,-0.5616,-0.5613,-0.5615,-0.5606,-0.5634,-0.5637,-0.5639,-0.5649,-0.5653,-0.5607,-0.5607,-0.5607,-0.5607,0,-0.5701,-0.57,-0.5704,-0.5695,-0.5692,-0.5694,-0.568,-0.5679,-0.567,-0.5661,-0.5664,-0.5653,-0.5648,-0.5648,-0.5638,-0.5653,-0.5649,-0.5637,-0.5622,-0.5645,-0.5655,-0.5658,-0.561,-0.5609,-0.5609,-0.5608,0,0,-0.5733,-0.5718,-0.572,-0.5717,-0.5706,-0.5705,-0.5708,-0.5704,-0.5705,-0.5698,-0.5702,-0.5698,-0.5689,-0.5685,-0.5674,-0.568,-0.5702,-0.5668,-0.5667,-0.5677,-0.5722,-0.5732,-0.5737,-0.5694,-0.5695,-0.5695,-0.5724,0,-0.5753,-0.5757,-0.5745,-0.5752,-0.5753,-0.5737,-0.574,-0.5734,-0.5727,-0.5727,-0.5719,-0.5718,-0.5704,-0.5702,-0.5707,-0.5699,-0.5712,-0.5696,-0.5699,-0.5699,-0.5704,-0.5741,-0.575,-0.5778,-0.5727,-0.5728,-0.5728,0,-0.5775,-0.5772,-0.578,-0.5772,-0.5772,-0.5775,-0.5772,-0.5772,-0.5766,-0.5761,-0.5758,-0.5747,-0.5751,-0.5737,-0.5744,-0.5734,-0.5734,-0.5731,-0.5732,-0.5732,-0.5716,-0.5744,-0.5785,-0.579,-0.5733,-0.5733,-0.5732,0,-0.5801,-0.5798,-0.5804,-0.5802,-0.5792,-0.5795,-0.5791,-0.5785,-0.5784,-0.5782,-0.5782,-0.578,-0.578,-0.5779,-0.5769,-0.5758,-0.5778,-0.5761,-0.5775,-0.5776,-0.5781,-0.5781,-0.5824,-0.5779,-0.5778,-0.5778,-0.5778,0,-0.5824,-0.583,-0.5816,-0.5819,-0.5827,-0.5814,-0.5822,-0.5817,-0.5812,-0.5816,-0.5802,-0.5805,-0.579,-0.5793,-0.5785,-0.5794,-0.5793,-0.579,-0.5788,-0.5792,-0.5793,-0.5793,-0.5791,-0.5779,-0.5779,-0.5779,-0.5779,0,-0.5853,-0.5843,-0.5849,-0.5841,-0.5839,-0.5845,-0.5839,-0.5843,-0.5836,-0.5841,-0.5841,-0.5831,-0.5834,-0.5823,-0.5823,-0.5818,-0.5832,-0.5826,-0.5835,-0.5833,-0.5849,-0.5849,-0.5895,-0.5902,-0.585,-0.5851,-0.5851,0,-0.5869,-0.5874,-0.5867,-0.5869,-0.5867,-0.5869,-0.587,-0.5858,-0.5859,-0.5856,-0.5861,-0.5863,-0.5865,-0.587,-0.5863,-0.5865,-0.586,-0.5876,-0.586,-0.5865,-0.5863,-0.5863,-0.5865,-0.588,-0.588,-0.5881,-0.5881,0,-0.5899,-0.5895,-0.5896,-0.5898,-0.5899,-0.5899,-0.5898,-0.5901,-0.5889,-0.5891,-0.5895,-0.5896,-0.5899,-0.5902,-0.5903,-0.59,-0.589,-0.5887,-0.5891,-0.5895,-0.5901,-0.5901,-0.5846,-0.5886,-0.5885,-0.5885,-0.5885,-0.5884,-0.5923,-0.5928,-0.5926,-0.5929,-0.5928,-0.5928,-0.5933,-0.5928,-0.5931,-0.5933,-0.5927,-0.5933,-0.5931,-0.5931,-0.593,-0.5935,-0.5928,-0.5932,-0.5934,-0.5936,-0.594,-0.59,-0.5935,-0.5935,-0.5935,-0.5935,-0.5935,0,-0.5954,-0.5953,-0.5956,-0.5957,-0.596,-0.5952,-0.5951,-0.5955,-0.5961,-0.596,-0.5963,-0.597,-0.5974,-0.5969,-0.5972,-0.5978,-0.5974,-0.598,-0.598,-0.598,-0.5945,-0.5942,-0.5983,-0.5983,-0.5983,-0.5983,-0.5983,-0.5983,-0.5971,-0.598,-0.5977,-0.5988,-0.5986,-0.5993,-0.5994,-0.5996,-0.5996,-0.6004,-0.6008,-0.6005,-0.6004,-0.6008,-0.6013,-0.6011,-0.6014,-0.6022,-0.602,-0.5987,-0.5982,-0.5977,-0.5975,-0.6023,-0.6023,-0.6055,-0.6055,-0.6055]}]]